Time,TemperatureF,DewpointF,PressureIn,WindDirection,WindDirectionDegrees,WindSpeedMPH,WindSpeedGustMPH,Humidity,HourlyPrecipIn,Conditions,Clouds,dailyrainin,SoftwareType,DateUTC
2013-03-20 00:00:00,54.3,39.8,30.02,NE,43,1.0,4.0,58,0.00,,,0.00,WeatherTracker,2013-03-20 05:00:00,
2013-03-20 00:10:00,54.4,39.0,30.02,NE,47,1.0,5.0,56,0.00,,,0.00,WeatherTracker,2013-03-20 05:10:00,
2013-03-20 00:15:00,54.5,38.7,30.02,NE,47,0.0,5.0,55,0.00,,,0.00,WeatherTracker,2013-03-20 05:15:00,
2013-03-20 00:25:00,54.5,38.2,30.01,NE,44,1.0,4.0,54,0.00,,,0.00,WeatherTracker,2013-03-20 05:25:00,
2013-03-20 00:35:00,54.5,38.2,30.01,ENE,59,3.0,4.0,54,0.00,,,0.00,WeatherTracker,2013-03-20 05:35:00,
2013-03-20 00:45:00,54.4,38.1,30.01,NE,42,2.0,5.0,54,0.00,,,0.00,WeatherTracker,2013-03-20 05:45:00,
2013-03-20 00:55:00,54.0,39.1,30.01,NE,48,1.0,4.0,57,0.00,,,0.00,WeatherTracker,2013-03-20 05:55:00,
2013-03-20 01:05:00,53.2,39.2,30.01,NE,48,0.0,4.0,59,0.00,,,0.00,WeatherTracker,2013-03-20 06:05:00,
2013-03-20 01:10:00,53.0,39.1,30.01,NE,48,0.0,3.0,59,0.00,,,0.00,WeatherTracker,2013-03-20 06:10:00,
2013-03-20 01:15:00,53.0,39.1,30.01,NE,48,0.0,2.0,59,0.00,,,0.00,WeatherTracker,2013-03-20 06:15:00,
2013-03-20 01:20:00,52.8,38.4,30.00,NE,48,0.0,2.0,58,0.00,,,0.00,WeatherTracker,2013-03-20 06:20:00,
2013-03-20 01:25:00,52.8,38.9,30.00,NE,48,0.0,2.0,59,0.00,,,0.00,WeatherTracker,2013-03-20 06:25:00,
2013-03-20 01:30:00,52.8,39.3,30.00,NE,48,0.0,3.0,60,0.00,,,0.00,WeatherTracker,2013-03-20 06:30:00,
2013-03-20 01:35:00,52.7,40.0,30.01,NE,48,0.0,3.0,62,0.00,,,0.00,WeatherTracker,2013-03-20 06:35:00,
2013-03-20 01:40:00,52.3,40.5,30.01,NE,48,2.0,0.0,64,0.00,,,0.00,WeatherTracker,2013-03-20 06:40:00,
2013-03-20 01:45:00,51.9,39.7,30.00,NE,48,2.0,3.0,63,0.00,,,0.00,WeatherTracker,2013-03-20 06:45:00,
2013-03-20 01:50:00,51.5,39.7,30.00,NE,49,4.0,4.0,64,0.00,,,0.00,WeatherTracker,2013-03-20 06:50:00,
2013-03-20 01:55:00,51.4,40.0,30.00,NE,49,2.0,4.0,65,0.00,,,0.00,WeatherTracker,2013-03-20 06:55:00,
2013-03-20 02:00:00,51.1,40.1,30.00,NE,49,2.0,4.0,66,0.00,,,0.00,WeatherTracker,2013-03-20 07:00:00,
2013-03-20 02:05:00,50.9,39.6,30.00,NE,49,2.0,3.0,65,0.00,,,0.00,WeatherTracker,2013-03-20 07:05:00,
2013-03-20 02:10:00,50.7,39.8,30.00,NE,49,1.0,3.0,66,0.00,,,0.00,WeatherTracker,2013-03-20 07:10:00,
2013-03-20 02:16:00,50.5,39.6,30.00,NE,49,1.0,3.0,66,0.00,,,0.00,WeatherTracker,2013-03-20 07:16:00,
2013-03-20 02:21:00,50.3,39.4,30.00,NE,34,4.0,5.0,66,0.00,,,0.00,WeatherTracker,2013-03-20 07:21:00,
2013-03-20 02:26:00,50.3,39.4,30.00,NE,34,3.0,5.0,66,0.00,,,0.00,WeatherTracker,2013-03-20 07:26:00,
2013-03-20 02:31:00,50.5,39.2,29.99,NE,50,3.0,5.0,65,0.00,,,0.00,WeatherTracker,2013-03-20 07:31:00,
2013-03-20 02:36:00,50.5,39.6,29.99,NE,44,3.0,5.0,66,0.00,,,0.00,WeatherTracker,2013-03-20 07:36:00,
2013-03-20 02:41:00,50.4,39.5,29.99,North,11,2.0,4.0,66,0.00,,,0.00,WeatherTracker,2013-03-20 07:41:00,
2013-03-20 02:46:00,50.3,40.5,30.00,North,11,2.0,4.0,69,0.00,,,0.00,WeatherTracker,2013-03-20 07:46:00,
2013-03-20 02:51:00,49.9,39.0,30.00,NE,37,3.0,4.0,66,0.00,,,0.00,WeatherTracker,2013-03-20 07:51:00,
2013-03-20 02:56:00,49.8,38.9,30.00,NE,40,3.0,4.0,66,0.00,,,0.00,WeatherTracker,2013-03-20 07:56:00,
2013-03-20 03:01:00,49.9,38.6,29.99,NE,40,1.0,4.0,65,0.00,,,0.00,WeatherTracker,2013-03-20 08:01:00,
2013-03-20 03:06:00,49.8,38.9,29.99,NE,36,2.0,5.0,66,0.00,,,0.00,WeatherTracker,2013-03-20 08:06:00,
2013-03-20 03:11:00,49.7,38.4,29.99,NE,38,4.0,4.0,65,0.00,,,0.00,WeatherTracker,2013-03-20 08:11:00,
2013-03-20 03:16:00,49.7,38.0,29.99,NE,38,2.0,4.0,64,0.00,,,0.00,WeatherTracker,2013-03-20 08:16:00,
2013-03-20 03:21:00,49.7,38.0,29.99,NE,40,3.0,5.0,64,0.00,,,0.00,WeatherTracker,2013-03-20 08:21:00,
2013-03-20 03:26:00,49.7,38.4,29.99,NE,38,3.0,5.0,65,0.00,,,0.00,WeatherTracker,2013-03-20 08:26:00,
2013-03-20 03:31:00,49.4,38.5,29.99,NNE,28,2.0,5.0,66,0.00,,,0.00,WeatherTracker,2013-03-20 08:31:00,
2013-03-20 03:36:00,49.0,38.9,29.99,NNE,32,3.0,5.0,68,0.00,,,0.00,WeatherTracker,2013-03-20 08:36:00,
2013-03-20 03:42:00,48.7,38.2,29.99,NNE,26,3.0,5.0,67,0.00,,,0.00,WeatherTracker,2013-03-20 08:42:00,
2013-03-20 03:47:00,48.5,38.4,29.99,NNE,26,3.0,5.0,68,0.00,,,0.00,WeatherTracker,2013-03-20 08:47:00,
2013-03-20 03:52:00,48.4,39.1,29.99,NNE,26,4.0,4.0,70,0.00,,,0.00,WeatherTracker,2013-03-20 08:52:00,
2013-03-20 03:57:00,48.2,39.2,30.00,NNE,26,3.0,4.0,71,0.00,,,0.00,WeatherTracker,2013-03-20 08:57:00,
2013-03-20 04:02:00,48.1,39.1,29.99,NE,46,3.0,5.0,71,0.00,,,0.00,WeatherTracker,2013-03-20 09:02:00,
2013-03-20 04:07:00,48.1,39.1,29.99,NE,46,3.0,5.0,71,0.00,,,0.00,WeatherTracker,2013-03-20 09:07:00,
2013-03-20 04:12:00,48.1,39.1,29.99,NNE,28,2.0,6.0,71,0.00,,,0.00,WeatherTracker,2013-03-20 09:12:00,
2013-03-20 04:17:00,48.0,39.1,29.99,NE,40,4.0,6.0,71,0.00,,,0.00,WeatherTracker,2013-03-20 09:17:00,
2013-03-20 04:22:00,47.9,39.3,30.00,NE,36,4.0,5.0,72,0.00,,,0.00,WeatherTracker,2013-03-20 09:22:00,
2013-03-20 04:27:00,47.8,39.2,30.00,NNE,30,3.0,5.0,72,0.00,,,0.00,WeatherTracker,2013-03-20 09:27:00,
2013-03-20 04:32:00,47.8,38.9,30.00,NE,47,3.0,5.0,71,0.00,,,0.00,WeatherTracker,2013-03-20 09:32:00,
2013-03-20 04:37:00,48.0,38.7,30.01,NNE,22,4.0,5.0,70,0.00,,,0.00,WeatherTracker,2013-03-20 09:37:00,
2013-03-20 04:42:00,48.2,38.1,30.00,NE,44,5.0,6.0,68,0.00,,,0.00,WeatherTracker,2013-03-20 09:42:00,
2013-03-20 04:47:00,48.5,37.7,30.00,NE,53,4.0,7.0,66,0.00,,,0.00,WeatherTracker,2013-03-20 09:47:00,
2013-03-20 04:52:00,48.7,37.9,30.00,NE,38,4.0,7.0,66,0.00,,,0.00,WeatherTracker,2013-03-20 09:52:00,
2013-03-20 04:57:00,48.7,37.9,30.01,NNE,28,3.0,7.0,66,0.00,,,0.00,WeatherTracker,2013-03-20 09:57:00,
2013-03-20 05:02:00,48.7,37.9,30.01,NE,52,6.0,7.0,66,0.00,,,0.00,WeatherTracker,2013-03-20 10:02:00,
2013-03-20 05:07:00,48.6,37.4,30.01,NE,44,5.0,7.0,65,0.00,,,0.00,WeatherTracker,2013-03-20 10:07:00,
2013-03-20 05:12:00,48.5,37.7,30.02,NE,38,4.0,7.0,66,0.00,,,0.00,WeatherTracker,2013-03-20 10:12:00,
2013-03-20 05:17:00,48.1,38.0,30.02,NE,42,4.0,6.0,68,0.00,,,0.00,WeatherTracker,2013-03-20 10:17:00,
2013-03-20 05:22:00,47.9,37.9,30.03,NE,40,4.0,6.0,68,0.00,,,0.00,WeatherTracker,2013-03-20 10:22:00,
2013-03-20 05:28:00,47.8,37.4,30.03,NE,43,3.0,6.0,67,0.00,,,0.00,WeatherTracker,2013-03-20 10:28:00,
2013-03-20 05:33:00,47.8,37.8,30.03,NE,51,2.0,6.0,68,0.00,,,0.00,WeatherTracker,2013-03-20 10:33:00,
2013-03-20 05:38:00,47.7,37.7,30.03,ENE,67,6.0,6.0,68,0.00,,,0.00,WeatherTracker,2013-03-20 10:38:00,
2013-03-20 05:43:00,47.6,37.6,30.03,East,80,1.0,6.0,68,0.00,,,0.00,WeatherTracker,2013-03-20 10:43:00,
2013-03-20 05:48:00,47.7,36.5,30.04,NNE,24,3.0,6.0,65,0.00,,,0.00,WeatherTracker,2013-03-20 10:48:00,
2013-03-20 05:53:00,48.1,36.1,30.04,NE,40,4.0,6.0,63,0.00,,,0.00,WeatherTracker,2013-03-20 10:53:00,
2013-03-20 05:58:00,48.5,35.7,30.04,East,86,6.0,7.0,61,0.00,,,0.00,WeatherTracker,2013-03-20 10:58:00,
2013-03-20 06:03:00,48.7,35.9,30.05,NE,55,5.0,9.0,61,0.00,,,0.00,WeatherTracker,2013-03-20 11:03:00,
2013-03-20 06:08:00,48.8,35.5,30.06,NE,40,5.0,9.0,60,0.00,,,0.00,WeatherTracker,2013-03-20 11:08:00,
2013-03-20 06:13:00,48.8,36.0,30.06,NNE,28,5.0,7.0,61,0.00,,,0.00,WeatherTracker,2013-03-20 11:13:00,
2013-03-20 06:18:00,48.7,35.9,30.07,NE,49,3.0,6.0,61,0.00,,,0.00,WeatherTracker,2013-03-20 11:18:00,
2013-03-20 06:23:00,48.6,36.2,30.07,NNE,31,5.0,7.0,62,0.00,,,0.00,WeatherTracker,2013-03-20 11:23:00,
2013-03-20 06:28:00,48.6,35.8,30.07,NE,54,4.0,7.0,61,0.00,,,0.00,WeatherTracker,2013-03-20 11:28:00,
2013-03-20 06:33:00,48.7,35.9,30.07,NE,42,3.0,6.0,61,0.00,,,0.00,WeatherTracker,2013-03-20 11:33:00,
2013-03-20 06:38:00,48.7,35.9,30.07,NE,36,5.0,6.0,61,0.00,,,0.00,WeatherTracker,2013-03-20 11:38:00,
2013-03-20 06:43:00,48.7,35.4,30.08,NE,44,4.0,7.0,60,0.00,,,0.00,WeatherTracker,2013-03-20 11:43:00,
2013-03-20 06:48:00,48.7,35.4,30.08,NE,47,3.0,7.0,60,0.00,,,0.00,WeatherTracker,2013-03-20 11:48:00,
2013-03-20 06:54:00,48.7,35.9,30.09,NE,44,2.0,5.0,61,0.00,,,0.00,WeatherTracker,2013-03-20 11:54:00,
2013-03-20 06:59:00,48.7,35.9,30.09,NE,51,2.0,6.0,61,0.00,,,0.00,WeatherTracker,2013-03-20 11:59:00,
2013-03-20 07:04:00,48.7,35.4,30.09,NNE,12,4.0,6.0,60,0.00,,,0.00,WeatherTracker,2013-03-20 12:04:00,
2013-03-20 07:09:00,48.7,35.4,30.10,NE,55,4.0,7.0,60,0.00,,,0.00,WeatherTracker,2013-03-20 12:09:00,
2013-03-20 07:14:00,48.6,35.8,30.09,NNE,30,2.0,7.0,61,0.00,,,0.00,WeatherTracker,2013-03-20 12:14:00,
2013-03-20 07:19:00,48.5,35.7,30.09,NE,36,3.0,6.0,61,0.00,,,0.00,WeatherTracker,2013-03-20 12:19:00,
2013-03-20 07:24:00,48.5,35.7,30.09,NE,50,0.0,5.0,61,0.00,,,0.00,WeatherTracker,2013-03-20 12:24:00,
2013-03-20 07:29:00,48.5,34.8,30.09,ENE,59,2.0,5.0,59,0.00,,,0.00,WeatherTracker,2013-03-20 12:29:00,
2013-03-20 07:34:00,48.6,34.5,30.09,ENE,75,6.0,6.0,58,0.00,,,0.00,WeatherTracker,2013-03-20 12:34:00,
2013-03-20 07:39:00,48.7,35.0,30.09,NE,40,4.0,8.0,59,0.00,,,0.00,WeatherTracker,2013-03-20 12:39:00,
2013-03-20 07:44:00,48.6,34.5,30.09,NE,45,5.0,8.0,58,0.00,,,0.00,WeatherTracker,2013-03-20 12:44:00,
2013-03-20 07:49:00,48.5,34.4,30.08,NE,49,6.0,8.0,58,0.00,,,0.00,WeatherTracker,2013-03-20 12:49:00,
2013-03-20 07:54:00,48.6,34.5,30.08,NE,39,2.0,8.0,58,0.00,,,0.00,WeatherTracker,2013-03-20 12:54:00,
2013-03-20 07:59:00,48.6,34.9,30.08,NE,34,3.0,8.0,59,0.00,,,0.00,WeatherTracker,2013-03-20 12:59:00,
2013-03-20 08:04:00,48.8,35.1,30.09,NE,35,6.0,6.0,59,0.00,,,0.00,WeatherTracker,2013-03-20 13:04:00,
2013-03-20 08:09:00,49.1,35.0,30.09,NE,34,3.0,10.0,58,0.00,,,0.00,WeatherTracker,2013-03-20 13:09:00,
2013-03-20 08:14:00,49.4,34.8,30.09,ENE,74,7.0,10.0,57,0.00,,,0.00,WeatherTracker,2013-03-20 13:14:00,
2013-03-20 08:20:00,49.7,33.7,30.10,NNE,17,6.0,8.0,54,0.00,,,0.00,WeatherTracker,2013-03-20 13:20:00,
2013-03-20 08:25:00,50.1,34.1,30.09,ENE,66,3.0,10.0,54,0.00,,,0.00,WeatherTracker,2013-03-20 13:25:00,
2013-03-20 08:30:00,50.4,33.4,30.09,NE,38,4.0,10.0,52,0.00,,,0.00,WeatherTracker,2013-03-20 13:30:00,
2013-03-20 08:35:00,50.6,33.1,30.09,NE,52,4.0,11.0,51,0.00,,,0.00,WeatherTracker,2013-03-20 13:35:00,
2013-03-20 08:40:00,50.8,34.8,30.11,North,360,7.0,13.0,54,0.00,,,0.00,WeatherTracker,2013-03-20 13:40:00,
2013-03-20 08:45:00,50.9,35.3,30.12,NE,34,8.0,13.0,55,0.00,,,0.00,WeatherTracker,2013-03-20 13:45:00,
2013-03-20 08:50:00,51.2,34.2,30.12,NE,37,5.0,13.0,52,0.00,,,0.00,WeatherTracker,2013-03-20 13:50:00,
2013-03-20 08:55:00,51.6,35.0,30.10,NE,51,6.0,9.0,53,0.00,,,0.00,WeatherTracker,2013-03-20 13:55:00,
2013-03-20 09:00:00,51.9,33.3,30.10,NNE,24,14.0,14.0,49,0.00,,,0.00,WeatherTracker,2013-03-20 14:00:00,
2013-03-20 09:05:00,52.5,33.4,30.11,NE,46,4.0,14.0,48,0.00,,,0.00,WeatherTracker,2013-03-20 14:05:00,
2013-03-20 09:10:00,53.2,33.0,30.12,NE,49,3.0,14.0,46,0.00,,,0.00,WeatherTracker,2013-03-20 14:10:00,
2013-03-20 09:15:00,53.6,31.7,30.12,NNE,14,5.0,12.0,43,0.00,,,0.00,WeatherTracker,2013-03-20 14:15:00,
2013-03-20 09:20:00,53.6,32.2,30.12,ENE,58,6.0,12.0,44,0.00,,,0.00,WeatherTracker,2013-03-20 14:20:00,
2013-03-20 09:25:00,53.8,31.3,30.11,NE,38,9.0,12.0,42,0.00,,,0.00,WeatherTracker,2013-03-20 14:25:00,
2013-03-20 09:30:00,53.9,31.3,30.10,NE,51,3.0,12.0,42,0.00,,,0.00,WeatherTracker,2013-03-20 14:30:00,
2013-03-20 09:35:00,53.9,30.7,30.10,NE,49,4.0,12.0,41,0.00,,,0.00,WeatherTracker,2013-03-20 14:35:00,
2013-03-20 09:40:00,53.9,32.5,30.09,NNE,27,4.0,12.0,44,0.00,,,0.00,WeatherTracker,2013-03-20 14:40:00,
2013-03-20 09:45:00,54.2,32.8,30.09,ENE,70,4.0,12.0,44,0.00,,,0.00,WeatherTracker,2013-03-20 14:45:00,
2013-03-20 09:50:00,54.5,33.0,30.09,East,92,2.0,10.0,44,0.00,,,0.00,WeatherTracker,2013-03-20 14:50:00,
2013-03-20 09:55:00,54.8,31.6,30.08,ENE,59,3.0,10.0,41,0.00,,,0.00,WeatherTracker,2013-03-20 14:55:00,
2013-03-20 10:00:00,55.7,33.6,30.09,East,98,2.0,10.0,43,0.00,,,0.00,WeatherTracker,2013-03-20 15:00:00,
2013-03-20 10:05:00,56.3,33.5,30.08,SE,129,1.0,8.0,42,0.00,,,0.00,WeatherTracker,2013-03-20 15:05:00,
2013-03-20 10:11:00,56.8,32.7,30.09,ENE,69,4.0,6.0,40,0.00,,,0.00,WeatherTracker,2013-03-20 15:11:00,
2013-03-20 10:16:00,56.8,32.7,30.07,East,100,5.0,9.0,40,0.00,,,0.00,WeatherTracker,2013-03-20 15:16:00,
2013-03-20 10:21:00,56.9,33.4,30.05,East,95,2.0,11.0,41,0.00,,,0.00,WeatherTracker,2013-03-20 15:21:00,
2013-03-20 10:26:00,57.3,33.8,30.06,ENE,70,4.0,11.0,41,0.00,,,0.00,WeatherTracker,2013-03-20 15:26:00,
2013-03-20 10:31:00,57.6,32.2,30.06,ENE,77,5.0,9.0,38,0.00,,,0.00,WeatherTracker,2013-03-20 15:31:00,
2013-03-20 10:36:00,58.1,33.9,30.07,East,86,5.0,9.0,40,0.00,,,0.00,WeatherTracker,2013-03-20 15:36:00,
2013-03-20 10:41:00,58.2,32.1,30.07,ENE,58,8.0,9.0,37,0.00,,,0.00,WeatherTracker,2013-03-20 15:41:00,
2013-03-20 10:46:00,58.2,33.4,30.07,NE,36,5.0,10.0,39,0.00,,,0.00,WeatherTracker,2013-03-20 15:46:00,
2013-03-20 10:51:00,58.5,34.3,30.07,NNE,27,6.0,10.0,40,0.00,,,0.00,WeatherTracker,2013-03-20 15:51:00,
2013-03-20 16:50:00,62.2,34.2,29.97,North,360,5.0,0.0,35,0.00,,,0.00,WeatherTracker,2013-03-20 21:50:00,
2013-03-20 16:55:00,62.2,33.5,29.97,North,5,7.0,12.0,34,0.00,,,0.00,WeatherTracker,2013-03-20 21:55:00,
2013-03-20 17:00:00,62.1,34.1,29.97,North,355,7.0,12.0,35,0.00,,,0.00,WeatherTracker,2013-03-20 22:00:00,
2013-03-20 17:05:00,62.2,33.5,29.97,NNW,346,8.0,12.0,34,0.00,,,0.00,WeatherTracker,2013-03-20 22:05:00,
2013-03-20 17:11:00,62.1,33.4,29.96,North,355,8.0,12.0,34,0.00,,,0.00,WeatherTracker,2013-03-20 22:11:00,
2013-03-20 17:16:00,62.1,32.7,29.97,NNW,344,7.0,12.0,33,0.00,,,0.00,WeatherTracker,2013-03-20 22:16:00,
2013-03-20 17:21:00,62.0,34.0,29.96,NW,322,6.0,12.0,35,0.00,,,0.00,WeatherTracker,2013-03-20 22:21:00,
2013-03-20 17:26:00,62.1,31.9,29.96,NNW,328,5.0,11.0,32,0.00,,,0.00,WeatherTracker,2013-03-20 22:26:00,
2013-03-20 17:31:00,62.2,32.7,29.96,NNW,340,7.0,11.0,33,0.00,,,0.00,WeatherTracker,2013-03-20 22:31:00,
2013-03-20 17:36:00,62.1,34.1,29.96,North,5,8.0,11.0,35,0.00,,,0.00,WeatherTracker,2013-03-20 22:36:00,
2013-03-20 17:41:00,61.8,33.9,29.96,NNW,328,6.0,13.0,35,0.00,,,0.00,WeatherTracker,2013-03-20 22:41:00,
2013-03-20 17:46:00,61.6,33.7,29.96,NW,325,5.0,13.0,35,0.00,,,0.00,WeatherTracker,2013-03-20 22:46:00,
2013-03-20 17:51:00,61.6,33.7,29.96,NNW,337,10.0,12.0,35,0.00,,,0.00,WeatherTracker,2013-03-20 22:51:00,
2013-03-20 17:56:00,61.5,33.6,29.96,North,5,11.0,11.0,35,0.00,,,0.00,WeatherTracker,2013-03-20 22:56:00,
2013-03-20 18:01:00,61.3,32.7,29.96,NW,321,11.0,15.0,34,0.00,,,0.00,WeatherTracker,2013-03-20 23:01:00,
2013-03-20 18:06:00,61.1,31.8,29.96,North,350,9.0,15.0,33,0.00,,,0.00,WeatherTracker,2013-03-20 23:06:00,
2013-03-20 18:11:00,60.8,31.5,29.96,NNW,335,6.0,14.0,33,0.00,,,0.00,WeatherTracker,2013-03-20 23:11:00,
2013-03-20 18:16:00,60.5,32.0,29.96,NNW,348,7.0,12.0,34,0.00,,,0.00,WeatherTracker,2013-03-20 23:16:00,
2013-03-20 18:21:00,60.3,32.5,29.96,NNW,344,4.0,11.0,35,0.00,,,0.00,WeatherTracker,2013-03-20 23:21:00,
2013-03-20 18:26:00,60.1,32.4,29.96,NNW,333,3.0,9.0,35,0.00,,,0.00,WeatherTracker,2013-03-20 23:26:00,
2013-03-20 18:32:00,59.9,33.6,29.96,North,360,6.0,9.0,37,0.00,,,0.00,WeatherTracker,2013-03-20 23:32:00,
2013-03-20 18:37:00,59.5,32.5,29.96,NNW,343,4.0,8.0,36,0.00,,,0.00,WeatherTracker,2013-03-20 23:37:00,
2013-03-20 18:42:00,59.2,32.9,29.96,NNW,338,4.0,8.0,37,0.00,,,0.00,WeatherTracker,2013-03-20 23:42:00,
2013-03-20 18:47:00,58.7,33.2,29.96,NW,319,5.0,8.0,38,0.00,,,0.00,WeatherTracker,2013-03-20 23:47:00,
2013-03-20 18:52:00,58.4,34.2,29.96,NNW,327,4.0,7.0,40,0.00,,,0.00,WeatherTracker,2013-03-20 23:52:00,
2013-03-20 18:57:00,57.8,33.6,29.96,NNW,330,4.0,5.0,40,0.00,,,0.00,WeatherTracker,2013-03-20 23:57:00,
2013-03-20 19:02:00,57.3,33.2,29.96,NNW,342,3.0,6.0,40,0.00,,,0.00,WeatherTracker,2013-03-21 00:02:00,
2013-03-20 19:07:00,56.9,33.4,29.96,NW,325,3.0,6.0,41,0.00,,,0.00,WeatherTracker,2013-03-21 00:07:00,
2013-03-20 19:12:00,56.5,33.7,29.96,NNW,327,2.0,5.0,42,0.00,,,0.00,WeatherTracker,2013-03-21 00:12:00,
2013-03-20 19:17:00,56.1,33.3,29.97,NNW,331,4.0,5.0,42,0.00,,,0.00,WeatherTracker,2013-03-21 00:17:00,
2013-03-20 19:22:00,55.6,34.0,29.97,NNW,331,3.0,5.0,44,0.00,,,0.00,WeatherTracker,2013-03-21 00:22:00,
2013-03-20 19:27:00,55.0,34.6,29.97,NNW,331,2.0,4.0,46,0.00,,,0.00,WeatherTracker,2013-03-21 00:27:00,
2013-03-20 19:32:00,54.5,33.6,29.97,NNW,331,2.0,4.0,45,0.00,,,0.00,WeatherTracker,2013-03-21 00:32:00,
2013-03-20 19:37:00,54.1,34.3,29.97,NNW,331,2.0,4.0,47,0.00,,,0.00,WeatherTracker,2013-03-21 00:37:00,
2013-03-20 19:42:00,53.8,33.5,29.97,NNW,340,3.0,5.0,46,0.00,,,0.00,WeatherTracker,2013-03-21 00:42:00,
2013-03-20 19:47:00,53.6,34.4,29.97,NNW,340,2.0,5.0,48,0.00,,,0.00,WeatherTracker,2013-03-21 00:47:00,
2013-03-20 19:52:00,53.3,37.1,29.98,NNW,340,1.0,4.0,54,0.00,,,0.00,WeatherTracker,2013-03-21 00:52:00,
2013-03-20 19:57:00,52.9,36.2,29.98,NNW,340,1.0,2.0,53,0.00,,,0.00,WeatherTracker,2013-03-21 00:57:00,
2013-03-20 20:02:00,52.4,36.7,29.98,NNW,340,2.0,3.0,55,0.00,,,0.00,WeatherTracker,2013-03-21 01:02:00,
2013-03-20 20:08:00,52.1,36.4,29.98,NNW,340,2.0,3.0,55,0.00,,,0.00,WeatherTracker,2013-03-21 01:08:00,
2013-03-20 20:13:00,51.8,36.2,29.98,NNW,340,0.0,3.0,55,0.00,,,0.00,WeatherTracker,2013-03-21 01:13:00,
2013-03-20 20:18:00,51.5,34.9,29.98,NNW,340,0.0,3.0,53,0.00,,,0.00,WeatherTracker,2013-03-21 01:18:00,
2013-03-20 20:23:00,51.4,34.4,29.98,NNW,340,1.0,4.0,52,0.00,,,0.00,WeatherTracker,2013-03-21 01:23:00,
2013-03-20 20:28:00,51.3,34.8,29.98,NNW,340,0.0,4.0,53,0.00,,,0.00,WeatherTracker,2013-03-21 01:28:00,
2013-03-20 20:33:00,51.2,35.1,29.97,NNW,340,3.0,3.0,54,0.00,,,0.00,WeatherTracker,2013-03-21 01:33:00,
2013-03-20 20:38:00,51.0,34.9,29.98,NNW,340,3.0,4.0,54,0.00,,,0.00,WeatherTracker,2013-03-21 01:38:00,
2013-03-20 20:43:00,50.9,34.4,29.98,NNW,340,2.0,4.0,53,0.00,,,0.00,WeatherTracker,2013-03-21 01:43:00,
2013-03-20 20:48:00,50.7,33.7,29.98,NNW,340,2.0,3.0,52,0.00,,,0.00,WeatherTracker,2013-03-21 01:48:00,
2013-03-20 20:53:00,50.5,34.0,29.98,NNW,340,2.0,3.0,53,0.00,,,0.00,WeatherTracker,2013-03-21 01:53:00,
2013-03-20 20:58:00,50.4,34.8,29.98,NNW,327,2.0,4.0,55,0.00,,,0.00,WeatherTracker,2013-03-21 01:58:00,
2013-03-20 21:03:00,50.3,34.8,29.98,NW,325,3.0,4.0,55,0.00,,,0.00,WeatherTracker,2013-03-21 02:03:00,
2013-03-20 21:08:00,50.1,34.1,29.98,NW,324,1.0,4.0,54,0.00,,,0.00,WeatherTracker,2013-03-21 02:08:00,
2013-03-20 21:14:00,50.1,34.1,29.98,NW,323,2.0,5.0,54,0.00,,,0.00,WeatherTracker,2013-03-21 02:14:00,
2013-03-20 21:19:00,50.1,34.1,29.99,NW,322,3.0,5.0,54,0.00,,,0.00,WeatherTracker,2013-03-21 02:19:00,
2013-03-20 21:24:00,49.9,34.4,29.99,NW,322,2.0,4.0,55,0.00,,,0.00,WeatherTracker,2013-03-21 02:24:00,
2013-03-20 21:29:00,49.7,33.7,29.99,NW,322,3.0,3.0,54,0.00,,,0.00,WeatherTracker,2013-03-21 02:29:00,
2013-03-20 21:34:00,49.5,33.6,29.99,NW,319,2.0,4.0,54,0.00,,,0.00,WeatherTracker,2013-03-21 02:34:00,
2013-03-20 21:39:00,49.4,33.5,29.99,NW,310,3.0,6.0,54,0.00,,,0.00,WeatherTracker,2013-03-21 02:39:00,
2013-03-20 21:44:00,49.3,33.8,29.99,WNW,303,3.0,6.0,55,0.00,,,0.00,WeatherTracker,2013-03-21 02:44:00,
2013-03-20 21:49:00,49.2,34.2,29.98,WNW,303,2.0,4.0,56,0.00,,,0.00,WeatherTracker,2013-03-21 02:49:00,
2013-03-20 21:54:00,49.1,34.1,29.98,WNW,303,2.0,4.0,56,0.00,,,0.00,WeatherTracker,2013-03-21 02:54:00,
2013-03-20 21:59:00,48.9,33.0,29.98,NW,306,3.0,4.0,54,0.00,,,0.00,WeatherTracker,2013-03-21 02:59:00,
2013-03-20 22:04:00,49.0,33.5,29.98,NW,316,3.0,5.0,55,0.00,,,0.00,WeatherTracker,2013-03-21 03:04:00,
2013-03-20 22:09:00,49.1,33.6,29.98,NW,308,4.0,5.0,55,0.00,,,0.00,WeatherTracker,2013-03-21 03:09:00,
2013-03-20 22:14:00,49.2,33.3,29.99,NW,317,4.0,7.0,54,0.00,,,0.00,WeatherTracker,2013-03-21 03:14:00,
2013-03-20 22:19:00,49.3,33.4,29.98,NW,323,3.0,7.0,54,0.00,,,0.00,WeatherTracker,2013-03-21 03:19:00,
2013-03-20 22:24:00,49.4,32.5,29.98,NW,316,4.0,6.0,52,0.00,,,0.00,WeatherTracker,2013-03-21 03:24:00,
2013-03-20 22:30:00,49.7,32.8,29.98,NW,315,3.0,6.0,52,0.00,,,0.00,WeatherTracker,2013-03-21 03:30:00,
2013-03-20 22:35:00,49.8,32.4,29.98,NW,318,3.0,6.0,51,0.00,,,0.00,WeatherTracker,2013-03-21 03:35:00,
2013-03-20 22:40:00,49.8,32.4,29.98,NW,321,3.0,6.0,51,0.00,,,0.00,WeatherTracker,2013-03-21 03:40:00,
2013-03-20 22:45:00,49.8,32.4,29.98,NW,322,4.0,5.0,51,0.00,,,0.00,WeatherTracker,2013-03-21 03:45:00,
2013-03-20 22:50:00,49.7,32.3,29.98,NW,319,3.0,6.0,51,0.00,,,0.00,WeatherTracker,2013-03-21 03:50:00,
2013-03-20 22:55:00,49.6,32.7,29.98,NW,315,4.0,6.0,52,0.00,,,0.00,WeatherTracker,2013-03-21 03:55:00,
2013-03-20 23:00:00,49.5,32.6,29.99,NNW,329,4.0,6.0,52,0.00,,,0.00,WeatherTracker,2013-03-21 04:00:00,
2013-03-20 23:05:00,49.3,32.4,29.99,NW,326,3.0,6.0,52,0.00,,,0.00,WeatherTracker,2013-03-21 04:05:00,
2013-03-20 23:10:00,49.1,32.2,29.98,NW,320,2.0,6.0,52,0.00,,,0.00,WeatherTracker,2013-03-21 04:10:00,
2013-03-20 23:15:00,49.0,32.6,29.98,NW,315,3.0,4.0,53,0.00,,,0.00,WeatherTracker,2013-03-21 04:15:00,
2013-03-20 23:20:00,48.7,32.8,29.99,NNW,339,4.0,5.0,54,0.00,,,0.00,WeatherTracker,2013-03-21 04:20:00,
2013-03-20 23:25:00,48.4,33.4,29.99,NW,324,3.0,7.0,56,0.00,,,0.00,WeatherTracker,2013-03-21 04:25:00,
2013-03-20 23:30:00,48.2,32.8,29.99,NNW,330,6.0,7.0,55,0.00,,,0.00,WeatherTracker,2013-03-21 04:30:00,
2013-03-20 23:35:00,48.1,32.7,29.99,NW,319,4.0,6.0,55,0.00,,,0.00,WeatherTracker,2013-03-21 04:35:00,
2013-03-20 23:41:00,48.0,32.6,29.99,NW,316,4.0,7.0,55,0.00,,,0.00,WeatherTracker,2013-03-21 04:41:00,
2013-03-20 23:46:00,48.1,32.2,29.99,NNW,328,5.0,9.0,54,0.00,,,0.00,WeatherTracker,2013-03-21 04:46:00,
2013-03-20 23:51:00,48.4,32.5,29.98,NNW,329,9.0,11.0,54,0.00,,,0.00,WeatherTracker,2013-03-21 04:51:00,
2013-03-20 23:56:00,48.8,32.0,29.99,NNW,340,8.0,11.0,52,0.00,,,0.00,WeatherTracker,2013-03-21 04:56:00,